Tracking 29777 objects as of 7-Oct-2024
HD Live streaming from Space Station
objects crossing your sky now

STARLINK-30258

Track STARLINK-30258 now!
10-day predictions
STARLINK-30258 is classified as:


NORAD ID: 57608
Int'l Code: 2023-119G
Perigee: 565.6 km
Apogee: 566.8 km
Inclination: 43.0 °
Period: 95.8 minutes
Semi major axis: 6937 km
RCS: Unknown
Launch date: August 11, 2023
Source: United States (US)
Launch site: AIR FORCE EASTERN TEST RANGE (AFETR)
Your satellite tracking list
Your tracking list is empty




NASA's NSSDC Master Catalog

Two Line Element Set (TLE):
1 57608U 23119G   24280.55183231  .00001905  00000-0  15601-3 0  9997
2 57608  43.0019  22.4968 0000902 248.4571 111.6175 15.02539207 64992
Source of the keplerian elements: AFSPC